• In Hungary
  • List of Countries
  • For 7 days
  • Water Temperature
  • Satellite Maps
  • Weather Map
  • News
  • Weather Widgets
  • user-avatar
    Login

    Hourly Weather Oratov

    Today, 12 November, Monday

    Time Temperature Precipitation Wind Pressure Humidity
    00:00 0°C° 0 mm 5 mps 752 mmHg 76%
    01:00 0°C° 0 mm 5 mps 752 mmHg 78%
    02:00 0°C° 0 mm 4 mps 752 mmHg 81%
    03:00 0°C° 0 mm 4 mps 752 mmHg 82%
    04:00 0°C° 0 mm 4 mps 752 mmHg 82%
    05:00 0°C° 0 mm 5 mps 752 mmHg 82%
    06:00 0°C° 0 mm 5 mps 753 mmHg 82%
    07:00 0°C° 0 mm 5 mps 753 mmHg 81%
    08:00 0°C° 0 mm 5 mps 753 mmHg 80%
    09:00 0°C° 0 mm 5 mps 754 mmHg 78%
    10:00 +1°C° 0 mm 5 mps 754 mmHg 76%
    11:00 +1°C° 0 mm 5 mps 754 mmHg 74%
    12:00 +1°C° 0 mm 5 mps 754 mmHg 71%
    13:00 +3°C° 0 mm 4 mps 754 mmHg 68%
    14:00 +3°C° 0 mm 4 mps 754 mmHg 65%
    15:00 +3°C° 0 mm 4 mps 755 mmHg 64%
    16:00 +3°C° 0 mm 4 mps 755 mmHg 62%
    17:00 +1°C° 0 mm 4 mps 755 mmHg 60%
    18:00 +1°C° 0 mm 4 mps 755 mmHg 59%
    19:00 0°C° 0 mm 4 mps 755 mmHg 57%
    20:00 0°C° 0 mm 5 mps 756 mmHg 56%
    21:00 -1°C° 0 mm 4 mps 756 mmHg 55%
    22:00 -1°C° 0 mm 4 mps 756 mmHg 55%
    23:00 -2°C° 0 mm 4 mps 756 mmHg 55%

    Tomorrow, 13 November, Tuesday

    Time Temperature Precipitation Wind Pressure Humidity
    00:00 -2°C° 0 mm 4 mps 756 mmHg 55%
    01:00 -3°C° 0 mm 4 mps 756 mmHg 56%
    02:00 -2°C° 0 mm 3 mps 756 mmHg 56%
    03:00 -4°C° 0 mm 3 mps 756 mmHg 57%
    04:00 -4°C° 0 mm 3 mps 756 mmHg 57%
    05:00 -4°C° 0 mm 4 mps 756 mmHg 57%
    06:00 -4°C° 0 mm 4 mps 756 mmHg 57%
    07:00 -4°C° 0 mm 4 mps 756 mmHg 57%
    08:00 -5°C° 0 mm 4 mps 756 mmHg 57%
    09:00 -4°C° 0 mm 4 mps 756 mmHg 54%
    10:00 -3°C° 0 mm 4 mps 756 mmHg 51%
    11:00 -2°C° 0 mm 4 mps 756 mmHg 49%
    12:00 -1°C° 0 mm 4 mps 756 mmHg 48%
    13:00 0°C° 0 mm 4 mps 755 mmHg 48%
    14:00 0°C° 0 mm 4 mps 755 mmHg 47%
    15:00 0°C° 0 mm 3 mps 755 mmHg 51%
    16:00 0°C° 0 mm 3 mps 755 mmHg 55%
    17:00 -1°C° 0 mm 3 mps 754 mmHg 59%
    18:00 -2°C° 0 mm 3 mps 754 mmHg 61%
    19:00 -2°C° 0 mm 3 mps 754 mmHg 63%
    20:00 -3°C° 0 mm 4 mps 754 mmHg 64%
    21:00 -3°C° 0 mm 4 mps 753 mmHg 65%
    22:00 -3°C° 0 mm 4 mps 753 mmHg 65%
    23:00 -4°C° 0 mm 4 mps 753 mmHg 65%

    Day after tomorrow, 14 November, Wednesday

    Time Temperature Precipitation Wind Pressure Humidity
    00:00 -4°C° 0 mm 4 mps 752 mmHg 65%
    01:00 -4°C° 0 mm 4 mps 752 mmHg 65%
    02:00 -4°C° 0 mm 4 mps 752 mmHg 65%
    03:00 -4°C° 0 mm 4 mps 751 mmHg 65%
    04:00 -4°C° 0 mm 4 mps 750 mmHg 65%
    05:00 -4°C° 0 mm 3 mps 750 mmHg 65%
    06:00 -4°C° 0 mm 4 mps 750 mmHg 64%
    07:00 -4°C° 0 mm 4 mps 750 mmHg 63%
    08:00 -3°C° 0 mm 4 mps 749 mmHg 62%
    09:00 -3°C° 0.1 mm 4 mps 749 mmHg 63%
    10:00 -2°C° 0.1 mm 4 mps 749 mmHg 63%
    11:00 -2°C° 0.1 mm 4 mps 749 mmHg 63%
    12:00 -2°C° 0.4 mm 4 mps 748 mmHg 67%
    13:00 -1°C° 0.4 mm 3 mps 748 mmHg 71%
    14:00 -1°C° 0.4 mm 3 mps 747 mmHg 75%
    15:00 -1°C° 0.6 mm 3 mps 747 mmHg 80%
    16:00 -1°C° 0.6 mm 3 mps 747 mmHg 85%
    17:00 -1°C° 0.6 mm 2 mps 747 mmHg 90%
    18:00 -1°C° 0.8 mm 2 mps 747 mmHg 91%
    19:00 -1°C° 0.8 mm 2 mps 747 mmHg 93%
    20:00 -1°C° 0.8 mm 2 mps 747 mmHg 95%
    21:00 -1°C° 0.7 mm 2 mps 747 mmHg 95%
    22:00 -1°C° 0.7 mm 2 mps 747 mmHg 96%
    23:00 -1°C° 0.7 mm 2 mps 747 mmHg 97%

    15 November, Thursday

    Time Temperature Precipitation Wind Pressure Humidity
    00:00 -1°C° 0.3 mm 2 mps 747 mmHg 97%
    01:00 -1°C° 0.3 mm 2 mps 747 mmHg 97%
    02:00 -1°C° 0.3 mm 2 mps 747 mmHg 97%
    03:00 -1°C° 0.1 mm 2 mps 747 mmHg 96%
    04:00 -2°C° 0.1 mm 2 mps 747 mmHg 96%
    05:00 -2°C° 0.1 mm 2 mps 748 mmHg 96%
    06:00 -2°C° 0 mm 2 mps 748 mmHg 95%
    07:00 -2°C° 0 mm 2 mps 749 mmHg 95%
    08:00 -2°C° 0 mm 2 mps 749 mmHg 95%
    09:00 -1°C° 0 mm 2 mps 750 mmHg 95%
    10:00 +1°C° 0 mm 2 mps 750 mmHg 96%
    11:00 0°C° 0 mm 3 mps 750 mmHg 96%
    12:00 +1°C° 0 mm 3 mps 751 mmHg 95%
    13:00 +1°C° 0 mm 3 mps 751 mmHg 95%
    14:00 +1°C° 0 mm 3 mps 751 mmHg 94%
    15:00 0°C° 0 mm 3 mps 751 mmHg 93%
    16:00 0°C° 0 mm 3 mps 751 mmHg 91%
    17:00 -1°C° 0 mm 3 mps 752 mmHg 90%
    18:00 -1°C° 0 mm 3 mps 752 mmHg 89%
    19:00 -2°C° 0 mm 3 mps 753 mmHg 88%
    20:00 -2°C° 0 mm 3 mps 753 mmHg 87%
    21:00 -4°C° 0 mm 3 mps 753 mmHg 87%
    22:00 -4°C° 0 mm 3 mps 753 mmHg 87%
    23:00 -4°C° 0 mm 3 mps 753 mmHg 87%

    16 November, Friday

    Time Temperature Precipitation Wind Pressure Humidity
    00:00 -4°C° 0 mm 3 mps 754 mmHg 87%
    01:00 -5°C° 0 mm 3 mps 754 mmHg 86%
    02:00 -5°C° 0 mm 3 mps 754 mmHg 86%
    03:00 -5°C° 0 mm 4 mps 754 mmHg 85%
    04:00 -5°C° 0 mm 4 mps 754 mmHg 85%
    05:00 -5°C° 0 mm 4 mps 754 mmHg 84%
    06:00 -5°C° 0 mm 4 mps 754 mmHg 83%
    07:00 -5°C° 0 mm 4 mps 754 mmHg 82%
    08:00 -5°C° 0 mm 4 mps 754 mmHg 81%
    09:00 -6°C° 0 mm 5 mps 755 mmHg 77%
    10:00 -5°C° 0 mm 5 mps 755 mmHg 72%
    11:00 -4°C° 0 mm 5 mps 755 mmHg 68%
    12:00 -2°C° 0 mm 5 mps 755 mmHg 67%
    13:00 -2°C° 0 mm 5 mps 754 mmHg 66%
    14:00 -1°C° 0 mm 5 mps 754 mmHg 65%
    15:00 -2°C° 0 mm 5 mps 754 mmHg 67%
    16:00 -4°C° 0 mm 5 mps 754 mmHg 69%
    17:00 -4°C° 0 mm 4 mps 754 mmHg 71%
    18:00 -4°C° 0 mm 4 mps 755 mmHg 69%
    19:00 -4°C° 0 mm 4 mps 755 mmHg 68%
    20:00 -5°C° 0 mm 4 mps 755 mmHg 66%
    21:00 -5°C° 0 mm 4 mps 755 mmHg 66%
    22:00 -5°C° 0 mm 4 mps 755 mmHg 66%
    23:00 -5°C° 0 mm 4 mps 755 mmHg 66%

    17 November, Saturday

    Time Temperature Precipitation Wind Pressure Humidity
    00:00 -5°C° 0 mm 4 mps 755 mmHg 66%
    01:00 -7°C° 0 mm 4 mps 755 mmHg 66%
    02:00 -7°C° 0 mm 4 mps 755 mmHg 66%
    03:00 -7°C° 0 mm 4 mps 755 mmHg 66%
    04:00 -7°C° 0 mm 4 mps 755 mmHg 66%
    05:00 -7°C° 0 mm 4 mps 754 mmHg 66%
    06:00 -7°C° 0 mm 4 mps 754 mmHg 66%
    07:00 -7°C° 0 mm 4 mps 755 mmHg 66%
    08:00 -7°C° 0 mm 4 mps 755 mmHg 65%
    09:00 -5°C° 0 mm 4 mps 755 mmHg 63%
    10:00 -4°C° 0 mm 4 mps 754 mmHg 61%
    11:00 -3°C° 0 mm 4 mps 754 mmHg 58%
    12:00 -2°C° 0 mm 4 mps 754 mmHg 59%
    13:00 -2°C° 0 mm 4 mps 754 mmHg 59%
    14:00 -1°C° 0 mm 4 mps 753 mmHg 60%
    15:00 -2°C° 0 mm 4 mps 753 mmHg 63%
    16:00 -3°C° 0 mm 4 mps 753 mmHg 67%
    17:00 -4°C° 0 mm 4 mps 753 mmHg 70%
    18:00 -5°C° 0 mm 3 mps 753 mmHg 69%
    19:00 -5°C° 0 mm 3 mps 752 mmHg 68%
    20:00 -5°C° 0 mm 3 mps 752 mmHg 67%
    21:00 -5°C° 0 mm 3 mps 752 mmHg 66%
    22:00 -6°C° 0 mm 3 mps 752 mmHg 65%
    23:00 -6°C° 0 mm 3 mps 752 mmHg 64%
    Show more